Sussex, NJ

12:55 PM EST on November 22, 2019 (GMT -0500)
Sussex

Weather History for KFWN - September, 2019

Change the Weather History Date:

Sunday, September 1, 2019

  Actual Average Record
Temperature  
Mean Temperature 65 °F -  
Max Temperature 79 °F 78 °F 97 °F (1953)
Min Temperature 53 °F 53 °F 37 °F (1965)
Growing Degree Days 15 (Base 50)    
Moisture  
Dew Point 55 °F    
Average Humidity 72    
Maximum Humidity 93    
Minimum Humidity 45    
Precipitation  
Precipitation 0.00 in - - ()
Sea Level Pressure  
Sea Level Pressure 30.30 in    
Wind  
Wind Speed 2 mph ()    
Max Wind Speed 8 mph    
Max Gust Speed -    
Visibility 10.0 miles    
Events Rain    
Averages and records for this station are not official NWS values.
T = Trace of Precipitation, MM = Missing Value Source: Averaged Metar Reports

Daily Weather History Graph

Daily Weather History Graph

Search for Another Location

Airport or City:

Astronomy

Sep. 01, 2019 Rise Set
Actual Time 6:24 AM EDT 7:31 PM EDT
Civil Twilight 5:56 AM EDT 7:59 PM EDT
Nautical Twilight 5:22 AM EDT 8:33 PM EDT
Astronomical Twilight 4:47 AM EDT 9:08 PM EDT
Moon 8:52 AM EDT (9/1) 9:16 PM EDT (9/1)
Length of Visible Light 14h 03m
Length of Day
13h 06m
Waxing Crescent, 8% of the Moon is Illuminated
Sep 1
Waxing Crescent
Sep 5
First Quarter
Sep 14
Full
Sep 21
Last Quarter
Sep 28
New

Hourly Weather History & Observations

Time (EDT) Temp. Dew Point Humidity Pressure Visibility Wind Dir Wind Speed Gust Speed Precip Events Conditions
12:53 AM 54.0 °F 51.1 °F 90% 30.32 in 10.0 mi Calm Calm - N/A   Clear
1:53 AM 53.1 °F 51.1 °F 93% 30.33 in 10.0 mi Calm Calm - N/A   Clear
2:53 AM 53.1 °F 51.1 °F 93% 30.34 in 10.0 mi Calm Calm - N/A   Clear
3:53 AM 53.1 °F 51.1 °F 93% 30.33 in 10.0 mi Calm Calm - N/A   Clear
4:53 AM 54.0 °F 51.1 °F 90% 30.34 in 10.0 mi Calm Calm - N/A   Clear
5:53 AM 53.1 °F 51.1 °F 93% 30.35 in 10.0 mi Calm Calm - N/A   Clear
6:53 AM 53.1 °F 51.1 °F 93% 30.36 in 10.0 mi Calm Calm - N/A   Clear
7:53 AM 57.0 °F 53.1 °F 87% 30.37 in 10.0 mi Calm Calm - N/A   Clear
8:53 AM 62.1 °F 53.1 °F 72% 30.36 in 10.0 mi ENE 4.6 mph - N/A   Clear
9:53 AM 68.0 °F 54.0 °F 61% 30.36 in 10.0 mi NNE 8.1 mph - N/A   Clear
10:53 AM 69.1 °F 55.0 °F 61% 30.36 in 10.0 mi Variable 3.5 mph - 0.00 in Rain Light Rain
11:53 AM 72.0 °F 55.9 °F 57% 30.34 in 10.0 mi ENE 4.6 mph - 0.00 in   Clear
12:53 PM 75.9 °F 55.9 °F 50% 30.33 in 10.0 mi Variable 5.8 mph - N/A   Clear
1:53 PM 77.0 °F 54.0 °F 45% 30.31 in 10.0 mi North - - N/A   Clear
2:53 PM 77.0 °F 55.9 °F 48% 30.28 in 10.0 mi South 6.9 mph - N/A   Partly Cloudy
3:53 PM 75.0 °F 57.9 °F 55% 30.28 in 10.0 mi SSE 4.6 mph - N/A   Partly Cloudy
4:53 PM 75.0 °F 57.9 °F 55% 30.27 in 10.0 mi South 4.6 mph - N/A   Clear
5:53 PM 73.9 °F 57.0 °F 55% 30.26 in 10.0 mi SSE 5.8 mph - N/A   Clear
6:53 PM 72.0 °F 57.0 °F 59% 30.25 in 10.0 mi SSE 3.5 mph - N/A   Clear
7:53 PM 70.0 °F 57.0 °F 63% 30.25 in 10.0 mi Calm Calm - N/A   Clear
8:53 PM 68.0 °F 59.0 °F 73% 30.25 in 10.0 mi Variable 3.5 mph - N/A   Clear
9:53 PM 68.0 °F 60.1 °F 76% 30.24 in 10.0 mi Variable 4.6 mph - N/A   Clear
10:53 PM 68.0 °F 61.0 °F 78% 30.22 in 10.0 mi Variable 4.6 mph - N/A   Scattered Clouds
11:31 PM 68.0 °F 61.0 °F 78% 30.23 in 10.0 mi Calm Calm - N/A   Mostly Cloudy
11:53 PM 68.0 °F 61.0 °F 78% 30.22 in 10.0 mi Calm Calm - N/A   Overcast